Weather in Pomoryany

Ukraine / Lviv District     49°38′36″N   24°56′17″E
temp.,
°C
wind,
m/s
gust,
m/s
humid.,
%
clouds,
%
prec.,
mm/h
press.,
hPa
HPBL,
m
15 august, mon
mon1500:00+18e358713 2.0 101077
03:00+17e378593 2.0 1009111
06:00+16ese3490100 0.5 100961
09:00+18ese2683100 0.6 1009169
12:00+23e4662100 0.0 1009748
15:00+26ene4649100 0.0 10081078
18:00+25ene4759100 0.0 1008470
21:00+22ne226636 0.0 100818
16 august, tue
tue1600:00+19e41266100 0.0 1008263
03:00+18ese336595 0.0 100839
06:00+17e1168100 0.0 100812
09:00+20ne236497 0.1 1009152
12:00+24nnw2254100 0.1 1008485
15:00+24nne3559100 0.1 1009844
18:00+25n3661100 0.0 1008968
21:00+21ene1170100 0.0 100911
17 august, wed
wed1700:00+20nnw116969 0.0 101014
03:00+18nnw367990 0.0 1009158
06:00+16nnw359768 0.0 1010132
09:00+20nnw467844 0.0 1011439
12:00+23n576097 0.0 10111199
15:00+25n675492 0.0 10111559
18:00+24nne575834 0.0 10111186
21:00+19nne22810 0.0 101226
18 august, thu
thu1800:00+17n22905 0.0 101216
03:00+17nnw11915 0.0 101213
06:00+16nw22945 0.0 101228
09:00+20nw23775 0.0 1013268
12:00+25nnw33575 0.0 1012937
15:00+27nne33481 0.0 10121485
18:00+27nne33520 0.0 10121395
21:00+22ne227214 0.0 101212
19 august, fri
fri1900:00+20e117641 0.0 101211
03:00+19e11806 0.0 101111
06:00+18ese11850 0.0 101211
09:00+23e22671 0.0 1012240
12:00+27e335023 0.0 10121344
15:00+30ene214192 0.0 10111949
18:00+29ne3343100 0.0 10101542
21:00+23e4106398 0.0 1011206